Location: Newark
(52.4787°S, 179.0532°W)
Time: 18:29:45
(UTC+00:00)

Transit 2A Rocket - Pass Details

Date: 28 November 2019
Orbit: 594 x 909 km, 66.7° (Epoch: 09 December)

Event Time Altitude Azimuth Distance (km) Brightness Sun altitude
Rises 00:38:06 0° 234° (SW) 3,550 8.4 57.0°
Reaches altitude 10° 00:41:12 10° 219° (SW) 2,624 7.7 56.8°
Maximum altitude 00:46:01 23° 168° (SSE) 1,853 6.9 56.5°
Drops below altitude 10° 00:50:47 10° 116° (ESE) 2,596 7.6 56.2°
Sets 00:53:50 0° 101° (ESE) 3,504 8.2 56.0°
